Sigfox identifier Datetime Temperature Humidity SNR
003AD0EB 2019-03-18 13:33:18 20.7 27 20.9
003AD0EB 2019-03-18 13:03:38 20.7 27 20.6
003AD0EB 2019-03-18 12:34:02 20.7 27 20.4
003AD0EB 2019-03-18 12:04:21 20.7 27 20.5
003AD0EB 2019-03-18 11:34:44 20.7 27 20.3
003AD0EB 2019-03-18 11:05:06 20.7 27 20.2
003AD0EB 2019-03-18 10:35:31 20.6 27 20
003AD0EB 2019-03-18 10:05:50 20.6 27 19.8
003AD0EB 2019-03-18 09:36:13 20.6 27 20.1
003AD0EB 2019-03-18 09:06:34 20.6 27 20
003AD0EB 2019-03-18 08:36:55 20.5 27 20.1
003AD0EB 2019-03-18 08:07:16 20.5 27 21.5
003AD0EB 2019-03-18 07:37:37 20.6 27 21.3
003AD0EB 2019-03-18 07:07:57 20.6 27 21
003AD0EB 2019-03-18 06:38:18 20.5 27 20.9
003AD0EB 2019-03-18 06:08:40 20.6 27 21
003AD0EB 2019-03-18 05:39:01 20.6 27 20.8
003AD0EB 2019-03-18 05:09:20 20.6 27 20.6
003AD0EB 2019-03-18 04:39:41 20.6 27 20.4
003AD0EB 2019-03-18 04:10:01 20.5 27 20.4
003AD0EB 2019-03-18 03:40:22 20.6 27 20.4
003AD0EB 2019-03-18 03:10:43 20.6 26 20.5
003AD0EB 2019-03-18 02:41:03 20.6 26 20.4
003AD0EB 2019-03-18 02:11:23 20.6 26 20.3
003AD0EB 2019-03-18 01:41:44 20.5 26 20.1
003AD0EB 2019-03-18 01:12:04 20.5 26 20.2
003AD0EB 2019-03-18 00:42:24 20.5 26 20.1
003AD0EB 2019-03-18 00:12:44 20.6 26 20
003AD0EB 2019-03-17 23:43:06 20.6 26 19.9
003AD0EB 2019-03-17 23:13:29 20.6 26 19.9
003AD0EB 2019-03-17 22:43:53 20.6 26 20
003AD0EB 2019-03-17 22:14:11 20.6 26 20
003AD0EB 2019-03-17 21:44:31 20.6 26 20.4
003AD0EB 2019-03-17 21:14:51 20.6 26 20.3
003AD0EB 2019-03-17 20:45:11 20.5 26 20.4
003AD0EB 2019-03-17 20:15:31 20.6 26 20.3
003AD0EB 2019-03-17 19:45:50 20.5 26 18.4
003AD0EB 2019-03-17 19:16:11 20.6 26 18.4
003AD0EB 2019-03-17 18:46:30 20.6 26 18.6
003AD0EB 2019-03-17 18:16:17 20.5 26 19
003AD0EB 2019-03-17 17:46:37 20.6 26 19.1
003AD0EB 2019-03-17 17:16:58 20.6 26 19.2
003AD0EB 2019-03-17 16:47:19 20.6 26 19.3
003AD0EB 2019-03-17 16:17:41 20.6 26 19.5
003AD0EB 2019-03-17 15:48:02 20.6 26 19.4
003AD0EB 2019-03-17 15:18:24 20.6 26 19.4
003AD0EB 2019-03-17 14:48:46 20.6 26 19.3
003AD0EB 2019-03-17 14:19:06 20.6 26 19.6
003AD0EB 2019-03-17 13:49:28 20.6 26 19.7
003AD0EB 2019-03-17 13:19:49 20.6 26 19.5
003AD0EB 2019-03-17 12:50:10 20.6 26 19.5
003AD0EB 2019-03-17 12:20:32 20.6 26 19.8
003AD0EB 2019-03-17 11:50:53 20.6 26 19.8
003AD0EB 2019-03-17 11:21:15 20.6 26 19.7
003AD0EB 2019-03-17 10:51:36 20.6 26 19.8
003AD0EB 2019-03-17 10:21:57 20.6 26 20
003AD0EB 2019-03-17 09:52:18 20.6 26 19.9
003AD0EB 2019-03-17 09:22:38 20.6 26 19.9
003AD0EB 2019-03-17 08:52:59 20.6 26 20.2
003AD0EB 2019-03-17 08:23:21 20.6 26 20.1
003AD0EB 2019-03-17 07:53:43 20.6 26 20.3
003AD0EB 2019-03-17 07:24:05 20.6 26 20.2
003AD0EB 2019-03-17 06:54:27 20.6 26 20.1
003AD0EB 2019-03-17 06:24:49 20.6 26 20
003AD0EB 2019-03-17 05:55:12 20.6 26 19.8
003AD0EB 2019-03-17 05:25:33 20.6 26 19.6
003AD0EB 2019-03-17 04:55:53 20.6 26 19.6
003AD0EB 2019-03-17 04:26:14 20.6 26 19.4
003AD0EB 2019-03-17 03:56:34 20.6 26 19.5
003AD0EB 2019-03-17 03:26:54 20.6 27 19.6
003AD0EB 2019-03-17 02:57:15 20.6 27 19.6
003AD0EB 2019-03-17 02:27:37 20.6 26 19.6
003AD0EB 2019-03-17 01:57:58 20.6 26 19.5
003AD0EB 2019-03-17 01:28:19 20.6 26 19.3
003AD0EB 2019-03-17 00:58:39 20.6 26 19.3
003AD0EB 2019-03-17 00:28:59 20.6 26 19.3
003AD0EB 2019-03-16 23:59:20 20.6 26 19
003AD0EB 2019-03-16 23:29:40 20.6 26 19.2
003AD0EB 2019-03-16 23:00:00 20.6 26 19.3
003AD0EB 2019-03-16 22:30:21 20.6 26 19.1
003AD0EB 2019-03-16 22:00:42 20.6 26 19
003AD0EB 2019-03-16 21:31:03 20.6 26 18.5
003AD0EB 2019-03-16 21:01:24 20.6 26 18.3
003AD0EB 2019-03-16 20:31:44 20.6 26 18.1
003AD0EB 2019-03-16 20:02:08 20.6 26 17.9
003AD0EB 2019-03-16 19:32:27 20.6 26 19.8
003AD0EB 2019-03-16 19:02:50 20.6 26 19.8
003AD0EB 2019-03-16 18:33:09 20.6 26 20
003AD0EB 2019-03-16 18:03:30 20.8 26 20
003AD0EB 2019-03-16 18:02:21 20.6 26 20
003AD0EB 2019-03-16 17:32:42 20.6 26 20
003AD0EB 2019-03-16 17:03:03 20.6 26 20
003AD0EB 2019-03-16 16:33:25 20.6 26 19.9
003AD0EB 2019-03-16 16:03:47 20.6 26 19.8
003AD0EB 2019-03-16 15:34:09 20.6 26 19.7
003AD0EB 2019-03-16 15:04:30 20.6 26 19.8
003AD0EB 2019-03-16 14:34:51 20.6 26 19.8
003AD0EB 2019-03-16 14:05:12 20.6 26 19.7
003AD0EB 2019-03-16 13:35:33 20.6 26 19.9
003AD0EB 2019-03-16 13:05:55 20.6 26 19.8
003AD0EB 2019-03-16 12:36:18 20.6 26 19.8
003AD0EB 2019-03-16 12:06:40 20.6 26 19.8
003AD0EB 2019-03-16 11:37:02 20.6 26 19.9
003AD0EB 2019-03-16 11:07:24 20.6 26 21.2
003AD0EB 2019-03-16 10:37:47 20.6 26 21.3
003AD0EB 2019-03-16 10:08:10 20.6 26 21.4
003AD0EB 2019-03-16 09:38:32 20.6 26 21.5
003AD0EB 2019-03-16 09:08:54 20.6 26 21.4
003AD0EB 2019-03-16 08:39:14 20.7 26 21.6
003AD0EB 2019-03-16 08:09:35 20.6 26 21.6
003AD0EB 2019-03-16 07:39:56 20.6 26 20.5
003AD0EB 2019-03-16 07:10:16 20.6 26 20.7
003AD0EB 2019-03-16 06:40:37 20.6 26 20.7
003AD0EB 2019-03-16 06:10:58 20.6 26 20.9
003AD0EB 2019-03-16 05:41:18 20.6 26 20.9
003AD0EB 2019-03-16 05:11:39 20.6 26 21
003AD0EB 2019-03-16 04:42:00 20.6 26 21
003AD0EB 2019-03-16 04:12:19 20.6 26 21.1
003AD0EB 2019-03-16 03:42:39 20.6 26 21.2
003AD0EB 2019-03-16 03:12:59 20.6 26 21.3
003AD0EB 2019-03-16 02:43:20 20.6 26 21.2
003AD0EB 2019-03-16 02:13:41 20.6 26 21.2
003AD0EB 2019-03-16 01:44:01 20.7 26 21.3
003AD0EB 2019-03-16 01:14:20 20.7 26 21.1
003AD0EB 2019-03-16 00:44:41 20.7 26 21.1
003AD0EB 2019-03-16 00:15:03 20.7 26 21.1
003AD0EB 2019-03-15 23:45:24 20.7 26 21.1
003AD0EB 2019-03-15 23:15:44 20.7 26 21
003AD0EB 2019-03-15 22:46:05 20.7 26 19.4
003AD0EB 2019-03-15 22:16:25 20.7 26 19.3
003AD0EB 2019-03-15 21:46:47 20.7 26 19.1
003AD0EB 2019-03-15 21:17:09 20.8 26 20.7
003AD0EB 2019-03-15 20:47:29 20.8 26 20.7
003AD0EB 2019-03-15 20:17:50 20.8 26 20.4
003AD0EB 2019-03-15 19:48:11 20.8 26 20.4
003AD0EB 2019-03-15 19:18:34 20.8 26 20.3
003AD0EB 2019-03-15 18:48:56 20.8 26 20.5
003AD0EB 2019-03-15 18:19:19 20.8 26 20.4
003AD0EB 2019-03-15 17:49:41 20.8 26 20.3
003AD0EB 2019-03-15 17:19:27 20.8 26 20.2
003AD0EB 2019-03-15 16:49:48 20.8 26 20.2
003AD0EB 2019-03-15 16:20:09 20.8 26 20.5
003AD0EB 2019-03-15 15:50:32 20.8 26 20.5
003AD0EB 2019-03-15 15:20:52 20.8 26 20.4
003AD0EB 2019-03-15 14:51:14 20.8 26 20.4
003AD0EB 2019-03-15 14:21:36 20.8 26 20.4
003AD0EB 2019-03-15 13:51:58 20.8 26 20.4
003AD0EB 2019-03-15 13:22:20 20.8 26 20.5
003AD0EB 2019-03-15 12:52:42 20.7 26 20.6
003AD0EB 2019-03-15 12:23:05 20.8 26 20.6
003AD0EB 2019-03-15 11:53:27 20.7 26 20.6
003AD0EB 2019-03-15 11:23:50 20.7 25 20.5
003AD0EB 2019-03-15 10:54:10 20.7 25 20.6
003AD0EB 2019-03-15 10:24:31 20.7 25 20.5
003AD0EB 2019-03-15 09:54:52 20.6 25 20.6
003AD0EB 2019-03-15 09:25:14 20.6 25 18.8
003AD0EB 2019-03-15 08:55:36 20.6 25 18.8
003AD0EB 2019-03-15 08:25:57 20.6 24 18.9
003AD0EB 2019-03-15 07:56:19 20.6 24 20.6
003AD0EB 2019-03-15 07:26:41 20.6 24 20.6
003AD0EB 2019-03-15 06:57:01 20.6 24 20.3
003AD0EB 2019-03-15 06:27:23 20.6 24 20.3
003AD0EB 2019-03-15 05:57:45 20.6 24 20.1
003AD0EB 2019-03-15 05:28:07 20.6 24 20.1
003AD0EB 2019-03-15 04:58:29 20.6 24 20
003AD0EB 2019-03-15 04:28:51 20.6 24 19.9
003AD0EB 2019-03-15 03:59:13 20.6 24 19.6
003AD0EB 2019-03-15 03:29:34 20.6 24 19.2
003AD0EB 2019-03-15 02:59:55 20.6 24 19.2
003AD0EB 2019-03-15 02:30:17 20.6 24 19.1
003AD0EB 2019-03-15 02:00:39 20.7 24 18.9
003AD0EB 2019-03-15 01:31:00 20.7 24 18.9
003AD0EB 2019-03-15 01:01:22 20.7 23 18.8
003AD0EB 2019-03-15 00:31:43 20.7 23 20.5
003AD0EB 2019-03-15 00:02:03 20.7 23 20.6
003AD0EB 2019-03-14 23:32:25 20.7 23 20.6
003AD0EB 2019-03-14 23:02:46 20.7 23 20.7
003AD0EB 2019-03-14 22:33:07 20.8 23 20.8
003AD0EB 2019-03-14 22:03:28 20.8 23 21.1
003AD0EB 2019-03-14 21:33:48 20.8 23 21.3
003AD0EB 2019-03-14 21:04:10 20.8 23 21.5
003AD0EB 2019-03-14 20:34:32 20.8 23 21.7
003AD0EB 2019-03-14 20:04:53 20.9 23 21.8
003AD0EB 2019-03-14 19:35:13 20.9 23 20.6
003AD0EB 2019-03-14 19:05:34 20.9 23 21
003AD0EB 2019-03-14 18:35:54 20.9 23 21.3
003AD0EB 2019-03-14 18:06:13 20.9 23 21.4
003AD0EB 2019-03-14 17:36:33 20.9 23 21.7
003AD0EB 2019-03-14 17:06:54 20.9 23 21.9
003AD0EB 2019-03-14 16:36:42 20.9 23 21.9
003AD0EB 2019-03-14 16:07:00 20.9 23 22
003AD0EB 2019-03-14 15:37:21 20.9 23 22.1
003AD0EB 2019-03-14 15:07:41 20.9 23 22.2
003AD0EB 2019-03-14 14:38:02 20.9 23 22.5
003AD0EB 2019-03-14 14:08:24 20.9 23 22.7
003AD0EB 2019-03-14 13:38:47 20.9 23 22.8
003AD0EB 2019-03-14 13:09:07 20.8 23 22.9
003AD0EB 2019-03-14 12:39:29 20.8 23 22.9
003AD0EB 2019-03-14 12:09:51 20.8 22 22.1
003AD0EB 2019-03-14 11:40:14 20.8 22 22.3
003AD0EB 2019-03-14 11:10:36 20.7 22 22.4
003AD0EB 2019-03-14 10:40:57 20.7 22 22.4
003AD0EB 2019-03-14 10:11:19 20.7 21 22.5
003AD0EB 2019-03-14 09:41:40 20.7 21 22.4
003AD0EB 2019-03-14 09:12:01 20.6 21 22.4
003AD0EB 2019-03-14 08:42:24 20.6 20 22.3
003AD0EB 2019-03-14 05:14:56 20.6 18 21.4
003AD0EB 2019-03-14 04:45:17 20.6 18 21.4
003AD0EB 2019-03-14 04:15:38 20.6 18 21.3
003AD0EB 2019-03-14 03:46:00 20.6 18 21.3
003AD0EB 2019-03-14 03:16:21 20.6 18 21.2
003AD0EB 2019-03-14 02:46:43 20.6 18 21
003AD0EB 2019-03-14 02:17:04 20.6 18 20.9
003AD0EB 2019-03-14 01:47:27 20.6 17 20.8
003AD0EB 2019-03-14 01:17:49 20.6 17 21.9
003AD0EB 2019-03-14 00:48:11 20.6 17 21.8
003AD0EB 2019-03-14 00:18:34 20.6 17 21.8
003AD0EB 2019-03-13 23:48:57 20.6 17 21.7
003AD0EB 2019-03-13 23:19:19 20.6 17 21.5
003AD0EB 2019-03-13 22:49:41 20.6 17 21.2
003AD0EB 2019-03-13 22:20:03 20.6 17 21.4
003AD0EB 2019-03-13 21:50:24 20.7 17 21.3
003AD0EB 2019-03-13 21:20:45 20.7 17 21.6
003AD0EB 2019-03-13 20:51:05 20.7 16 21.7
003AD0EB 2019-03-13 20:21:25 20.7 16 21.7
003AD0EB 2019-03-13 19:51:44 20.7 16 21.9
003AD0EB 2019-03-13 19:22:06 20.8 16 21.9
003AD0EB 2019-03-13 18:52:25 20.8 16 22
003AD0EB 2019-03-13 18:22:44 20.8 16 22
003AD0EB 2019-03-13 17:53:04 20.9 16 22
003AD0EB 2019-03-13 17:23:26 20.9 16 22.2
003AD0EB 2019-03-13 16:53:46 20.9 16 22.6
003AD0EB 2019-03-13 16:24:07 20.9 16 22.8
003AD0EB 2019-03-13 15:53:53 20.9 16 23.3
003AD0EB 2019-03-13 15:24:13 20.8 16 23.5
003AD0EB 2019-03-13 14:54:33 20.8 16 23.6
003AD0EB 2019-03-13 14:24:55 20.8 16 23.7
003AD0EB 2019-03-13 13:55:16 20.8 16 23.8
003AD0EB 2019-03-13 13:25:36 20.8 16 23.4
003AD0EB 2019-03-13 12:55:58 20.8 16 23.6
003AD0EB 2019-03-13 12:26:19 20.7 16 23.7
003AD0EB 2019-03-13 11:56:41 20.7 16 23.8
003AD0EB 2019-03-13 11:27:02 20.7 16 23.9
003AD0EB 2019-03-13 10:57:22 20.6 16 24.1
003AD0EB 2019-03-13 10:27:43 20.6 16 24.1
003AD0EB 2019-03-13 09:58:00 20.5 16 24.2
003AD0EB 2019-03-13 09:28:20 20.4 16 24
003AD0EB 2019-03-13 08:58:41 20.3 15 23.9
003AD0EB 2019-03-13 08:28:59 20.3 15 23.9
003AD0EB 2019-03-13 07:59:19 20.3 15 23.9
003AD0EB 2019-03-13 07:29:40 20.4 15 23.9
003AD0EB 2019-03-13 07:00:01 20.3 15 24.1
003AD0EB 2019-03-13 06:30:22 20.4 15 24.2
003AD0EB 2019-03-13 06:00:43 20.4 16 23.9
003AD0EB 2019-03-13 05:31:04 20.4 16 23.8
003AD0EB 2019-03-13 05:01:25 20.4 16 23.6
003AD0EB 2019-03-13 04:31:45 20.4 16 23.3
003AD0EB 2019-03-13 04:02:04 20.4 16 23.2
003AD0EB 2019-03-13 03:32:25 20.4 16 23
003AD0EB 2019-03-13 03:02:47 20.4 16 23.1
003AD0EB 2019-03-13 02:33:07 20.4 16 22.9
003AD0EB 2019-03-13 02:03:28 20.5 16 22.8
003AD0EB 2019-03-13 01:33:49 20.5 16 22.6
003AD0EB 2019-03-13 01:04:09 20.5 16 23.3
003AD0EB 2019-03-13 00:34:28 20.5 16 23.3
003AD0EB 2019-03-13 00:04:48 20.5 16 23.2
003AD0EB 2019-03-12 23:35:09 20.5 16 23.1
003AD0EB 2019-03-12 23:05:28 20.5 16 22.9
003AD0EB 2019-03-12 22:35:49 20.6 16 22.8
003AD0EB 2019-03-12 22:06:10 20.6 16 22.9
003AD0EB 2019-03-12 21:36:31 20.6 16 22.9
003AD0EB 2019-03-12 21:06:52 20.6 16 23.6
003AD0EB 2019-03-12 20:37:12 20.6 16 24.2
003AD0EB 2019-03-12 20:07:32 20.6 16 24.7
003AD0EB 2019-03-12 19:37:52 20.6 16 24.6
003AD0EB 2019-03-12 19:08:12 20.7 16 25
003AD0EB 2019-03-12 18:38:32 20.7 16 25.5
003AD0EB 2019-03-12 18:08:52 20.7 16 25.8
003AD0EB 2019-03-12 17:39:12 20.7 16 26.2
003AD0EB 2019-03-12 17:09:34 20.7 16 26.5
003AD0EB 2019-03-12 16:39:55 20.7 16 26.9
003AD0EB 2019-03-12 16:10:15 20.7 16 27.2
003AD0EB 2019-03-12 15:40:35 20.7 16 27.3
003AD0EB 2019-03-12 15:10:21 20.7 16 27.8
003AD0EB 2019-03-12 14:40:41 20.6 16 28
003AD0EB 2019-03-12 14:11:00 20.6 16 28.3
003AD0EB 2019-03-12 13:41:19 20.6 16 28.4
003AD0EB 2019-03-12 13:11:37 20.6 16 28.4
003AD0EB 2019-03-12 12:41:56 20.6 16 28.6
003AD0EB 2019-03-12 12:12:17 20.6 16 28.9
003AD0EB 2019-03-12 11:42:35 20.5 16 29
003AD0EB 2019-03-12 11:12:54 20.5 16 29.2
003AD0EB 2019-03-12 10:43:12 20.5 16 29.4
003AD0EB 2019-03-12 10:13:30 20.4 16 29.6
003AD0EB 2019-03-12 09:43:48 20.4 16 29.7
003AD0EB 2019-03-12 09:14:06 20.3 16 29.7
003AD0EB 2019-03-12 08:44:23 20.3 15 29.7
003AD0EB 2019-03-12 08:14:42 20.3 16 29.7
003AD0EB 2019-03-12 07:45:01 20.4 16 29.9
003AD0EB 2019-03-12 07:15:20 20.4 16 29.9
003AD0EB 2019-03-12 06:45:38 20.4 16 29.9
003AD0EB 2019-03-12 06:15:56 20.4 16 29.9
003AD0EB 2019-03-12 05:46:15 20.4 16 29.7
003AD0EB 2019-03-12 05:16:35 20.4 16 29.7
003AD0EB 2019-03-12 04:46:55 20.4 16 29.6
003AD0EB 2019-03-12 04:17:14 20.4 16 29.4
003AD0EB 2019-03-12 03:47:34 20.4 16 29.3
003AD0EB 2019-03-12 03:17:54 20.4 16 29.1
003AD0EB 2019-03-12 02:48:14 20.4 16 28.9
003AD0EB 2019-03-12 02:18:34 20.5 16 28.7
003AD0EB 2019-03-12 01:48:55 20.5 16 28.4
003AD0EB 2019-03-12 01:19:15 20.5 17 28.2
003AD0EB 2019-03-12 00:49:34 20.5 16 27.9
003AD0EB 2019-03-12 00:19:56 20.5 16 27.7
003AD0EB 2019-03-11 23:50:17 20.5 16 27.4
003AD0EB 2019-03-11 23:20:37 20.5 16 27.1
003AD0EB 2019-03-11 22:50:56 20.6 16 26.8
003AD0EB 2019-03-11 22:21:16 20.6 16 26.4
003AD0EB 2019-03-11 21:51:36 20.6 16 26.1
003AD0EB 2019-03-11 21:21:56 20.6 16 25.6
003AD0EB 2019-03-11 20:52:17 20.6 16 25.1
003AD0EB 2019-03-11 20:22:37 20.6 16 24.8
003AD0EB 2019-03-11 19:52:56 20.7 16 24.3
003AD0EB 2019-03-11 19:23:14 20.7 16 23.6
003AD0EB 2019-03-11 18:53:33 20.7 16 23
003AD0EB 2019-03-11 18:23:52 20.8 16 22.2
003AD0EB 2019-03-11 17:54:13 20.8 16 21.2
003AD0EB 2019-03-11 17:24:33 20.8 17 21.5
003AD0EB 2019-03-11 16:54:53 20.7 17 20.2
003AD0EB 2019-03-11 16:25:11 20.7 17 20.3
003AD0EB 2019-03-11 15:55:32 20.7 17 20.3
003AD0EB 2019-03-11 15:25:52 20.7 16 20.3
003AD0EB 2019-03-11 14:56:12 20.6 17 20.6
003AD0EB 2019-03-11 14:25:57 20.6 17 21.1
003AD0EB 2019-03-11 13:56:17 20.5 17 21.2
003AD0EB 2019-03-11 13:26:36 20.5 17 21.2
003AD0EB 2019-03-11 12:56:57 20.5 17 21.4
003AD0EB 2019-03-11 12:27:16 20.5 17 21.5
003AD0EB 2019-03-11 11:57:36 20.5 17 21.8
003AD0EB 2019-03-11 11:27:56 20.5 17 21.9
003AD0EB 2019-03-11 10:58:16 20.4 17 22
003AD0EB 2019-03-11 10:28:37 20.4 17 22.1
003AD0EB 2019-03-11 09:58:57 20.4 17 22.3
003AD0EB 2019-03-11 09:29:18 20.3 17 22.4
003AD0EB 2019-03-11 08:59:38 20.3 18 22.5
003AD0EB 2019-03-11 08:29:59 20.3 18 22.2
003AD0EB 2019-03-11 08:00:20 20.3 18 22.1
003AD0EB 2019-03-11 07:30:40 20.4 18 22.3
003AD0EB 2019-03-11 07:01:01 20.4 18 22.2
003AD0EB 2019-03-11 06:31:22 20.3 18 22.2
003AD0EB 2019-03-11 06:01:42 20.4 18 22.2
003AD0EB 2019-03-11 05:32:03 20.4 19 22.3
003AD0EB 2019-03-11 05:02:23 20.4 19 22.4
003AD0EB 2019-03-11 04:32:45 20.4 19 22.5
003AD0EB 2019-03-11 04:03:09 20.4 19 22.6
003AD0EB 2019-03-11 03:33:28 20.4 19 22.8
003AD0EB 2019-03-11 03:03:49 20.4 19 22.9
003AD0EB 2019-03-11 02:34:10 20.4 19 22.8
003AD0EB 2019-03-11 02:04:30 20.4 19 22.7
003AD0EB 2019-03-11 01:34:51 20.4 19 22.7
003AD0EB 2019-03-11 01:05:11 20.5 19 22.7
003AD0EB 2019-03-11 00:35:30 20.5 19 22.8
003AD0EB 2019-03-11 00:05:50 20.5 20 23
003AD0EB 2019-03-10 23:36:12 20.5 20 22.8
003AD0EB 2019-03-10 23:06:32 20.5 20 22.7
003AD0EB 2019-03-10 22:36:51 20.5 20 22.8
003AD0EB 2019-03-10 22:07:11 20.5 20 22.7
003AD0EB 2019-03-10 21:37:32 20.5 20 22.5
003AD0EB 2019-03-10 21:07:53 20.6 20 22.4
003AD0EB 2019-03-10 20:38:14 20.6 20 22.4
003AD0EB 2019-03-10 20:08:35 20.6 20 22.5
003AD0EB 2019-03-10 19:38:56 20.6 20 22.5
003AD0EB 2019-03-10 19:09:17 20.6 20 22.3
003AD0EB 2019-03-10 18:39:39 20.7 21 22.4
003AD0EB 2019-03-10 18:10:01 20.7 21 22.6
003AD0EB 2019-03-10 17:40:22 20.7 21 22.5
003AD0EB 2019-03-10 17:10:44 20.6 21 22.3
003AD0EB 2019-03-10 16:41:07 20.7 21 22.5
003AD0EB 2019-03-10 16:11:30 20.6 21 22.3
003AD0EB 2019-03-10 15:41:50 20.6 21 22.1
003AD0EB 2019-03-10 15:12:12 20.6 22 22.1
003AD0EB 2019-03-10 14:42:33 20.6 23 22
003AD0EB 2019-03-10 14:12:54 20.6 23 22.1
003AD0EB 2019-03-10 13:42:39 20.5 24 21.9
003AD0EB 2019-03-10 13:12:59 20.5 24 22.3
003AD0EB 2019-03-10 12:43:20 20.5 24 22.1
003AD0EB 2019-03-10 12:13:39 20.5 24 22
003AD0EB 2019-03-10 11:43:59 20.5 24 22.2
003AD0EB 2019-03-10 11:14:19 20.5 24 22.5
003AD0EB 2019-03-10 10:44:40 20.5 24 22.4
003AD0EB 2019-03-10 10:15:00 20.5 24 22.4
003AD0EB 2019-03-10 09:45:21 20.5 24 22.7
003AD0EB 2019-03-10 09:15:42 20.5 24 22.8
003AD0EB 2019-03-10 08:46:06 20.5 24 22.9
003AD0EB 2019-03-10 08:16:24 20.5 24 23
003AD0EB 2019-03-10 07:46:44 20.5 24 23.2
003AD0EB 2019-03-10 07:17:04 20.5 24 23.3
003AD0EB 2019-03-10 06:47:23 20.6 24 23.2
003AD0EB 2019-03-10 06:17:43 20.5 24 23.1
003AD0EB 2019-03-10 05:48:03 20.5 24 23.1
003AD0EB 2019-03-10 05:18:22 20.5 24 23.2
003AD0EB 2019-03-10 04:48:43 20.5 24 23
003AD0EB 2019-03-10 04:19:03 20.5 24 23.2
003AD0EB 2019-03-10 03:49:22 20.6 24 23.4
003AD0EB 2019-03-10 03:19:42 20.5 24 23.3
003AD0EB 2019-03-10 02:50:02 20.6 24 23.4
003AD0EB 2019-03-10 02:20:21 20.6 24 23.5
003AD0EB 2019-03-10 01:50:42 20.6 24 23.6
003AD0EB 2019-03-10 01:21:00 20.6 24 23.7
003AD0EB 2019-03-10 00:51:21 20.6 24 23.5
003AD0EB 2019-03-10 00:21:41 20.6 24 23.6
003AD0EB 2019-03-09 23:52:00 20.6 24 23.5
003AD0EB 2019-03-09 23:22:20 20.6 23 23.3
003AD0EB 2019-03-09 22:52:39 20.6 23 23.2
003AD0EB 2019-03-09 22:22:59 20.6 23 23.2
003AD0EB 2019-03-09 21:53:19 20.6 23 23.3
003AD0EB 2019-03-09 21:23:36 20.6 23 23.2
003AD0EB 2019-03-09 20:53:57 20.6 23 23.1
003AD0EB 2019-03-09 20:24:15 20.7 23 23.1
003AD0EB 2019-03-09 19:54:34 20.7 23 22.9
003AD0EB 2019-03-09 19:24:54 20.7 23 22.9
003AD0EB 2019-03-09 18:55:14 20.7 23 22.8
003AD0EB 2019-03-09 18:25:34 20.7 23 22.8
003AD0EB 2019-03-09 17:55:54 20.7 23 22.8
003AD0EB 2019-03-09 17:26:15 20.7 23 22.8
003AD0EB 2019-03-09 16:56:35 20.8 23 22.8
003AD0EB 2019-03-09 16:26:55 20.8 23 22.8
003AD0EB 2019-03-09 15:57:14 20.7 23 22.6
003AD0EB 2019-03-09 15:27:34 20.7 23 22.5
003AD0EB 2019-03-09 14:57:53 20.7 24 22.7
003AD0EB 2019-03-09 14:28:14 20.7 24 22.9
003AD0EB 2019-03-09 13:58:34 20.6 24 22.7
003AD0EB 2019-03-09 13:28:55 20.7 24 22.8
003AD0EB 2019-03-09 12:58:42 20.6 24 22.8
003AD0EB 2019-03-09 12:29:03 20.6 24 22.7
003AD0EB 2019-03-09 11:59:23 20.6 24 23
003AD0EB 2019-03-09 11:29:43 20.6 24 23
003AD0EB 2019-03-09 11:00:03 20.6 24 23
003AD0EB 2019-03-09 10:30:25 20.6 24 23.6
003AD0EB 2019-03-09 10:00:47 20.6 24 23.6
003AD0EB 2019-03-09 09:31:08 20.6 24 23.8
003AD0EB 2019-03-09 09:01:28 20.6 25 23.8
003AD0EB 2019-03-09 08:31:50 20.6 25 23.8
003AD0EB 2019-03-09 08:02:10 20.6 25 24
003AD0EB 2019-03-09 07:32:33 20.6 25 23.8
003AD0EB 2019-03-09 07:02:54 20.6 25 24.4
003AD0EB 2019-03-09 06:33:14 20.6 25 24.4
003AD0EB 2019-03-09 06:03:34 20.6 26 24.4
003AD0EB 2019-03-09 05:33:56 20.6 26 24.5
003AD0EB 2019-03-09 05:04:17 20.7 26 24.4
003AD0EB 2019-03-09 04:34:37 20.7 26 24.3
003AD0EB 2019-03-09 04:04:56 20.7 26 24.4
003AD0EB 2019-03-09 03:35:17 20.7 26 24.8
003AD0EB 2019-03-09 03:05:35 20.7 26 24.7
003AD0EB 2019-03-09 02:35:55 20.7 26 24.4
003AD0EB 2019-03-09 02:06:14 20.8 26 24.4
003AD0EB 2019-03-09 01:36:35 20.8 26 24.3
003AD0EB 2019-03-09 01:06:56 20.8 26 24.3
003AD0EB 2019-03-09 00:37:18 20.8 26 24.3
003AD0EB 2019-03-09 00:07:40 20.8 26 24.3
003AD0EB 2019-03-08 23:38:00 20.8 26 24
003AD0EB 2019-03-08 23:08:20 20.9 26 24.1
003AD0EB 2019-03-08 22:38:41 20.9 26 24.1
003AD0EB 2019-03-08 22:09:01 20.9 26 23.4
003AD0EB 2019-03-08 21:39:24 20.9 26 23.2
003AD0EB 2019-03-08 21:09:45 21 26 23.1
003AD0EB 2019-03-08 20:40:06 21 26 23.1
003AD0EB 2019-03-08 20:10:27 21 26 23.1
003AD0EB 2019-03-08 19:40:47 21 26 23
003AD0EB 2019-03-08 19:11:08 21 27 23.1
003AD0EB 2019-03-08 18:41:28 21 27 22.3
003AD0EB 2019-03-08 18:11:47 21.1 26 22.2
003AD0EB 2019-03-08 17:42:06 21.1 26 23.1
003AD0EB 2019-03-08 17:12:25 21.1 27 23
003AD0EB 2019-03-08 16:42:44 21.1 27 23.1
003AD0EB 2019-03-08 16:13:04 21.1 27 23.3
003AD0EB 2019-03-08 15:43:22 21 27 23.5
003AD0EB 2019-03-08 15:13:42 21 26 22.9
003AD0EB 2019-03-08 14:44:01 21 26 23.2
003AD0EB 2019-03-08 14:14:21 21 26 23.4
003AD0EB 2019-03-08 13:44:39 20.9 26 23.4
003AD0EB 2019-03-08 13:14:59 20.9 26 23.5
003AD0EB 2019-03-08 12:45:16 20.8 26 23.6
003AD0EB 2019-03-08 12:15:10 20.8 25 23.6
003AD0EB 2019-03-08 11:45:29 20.8 25 23.8
003AD0EB 2019-03-08 11:15:48 20.8 25 24
003AD0EB 2019-03-08 10:46:07 20.8 25 23.9
003AD0EB 2019-03-08 10:16:25 20.8 25 24.2
003AD0EB 2019-03-08 09:46:44 20.7 24 24.3
003AD0EB 2019-03-08 09:17:03 20.7 24 24.3
003AD0EB 2019-03-08 08:47:23 20.7 24 24.3
003AD0EB 2019-03-08 08:17:43 20.7 23 24.4
003AD0EB 2019-03-08 07:48:02 20.7 23 24.3
003AD0EB 2019-03-08 07:18:23 20.7 23 24.3
003AD0EB 2019-03-08 06:48:42 20.7 23 24.3
003AD0EB 2019-03-08 06:19:04 20.7 23 24.4
003AD0EB 2019-03-08 05:49:24 20.7 23 23.8
003AD0EB 2019-03-08 05:19:43 20.7 23 23.8
003AD0EB 2019-03-08 04:50:02 20.7 23 23.7
003AD0EB 2019-03-08 04:20:22 20.7 23 23.6
003AD0EB 2019-03-08 03:50:42 20.7 22 23.4
003AD0EB 2019-03-08 03:21:01 20.7 22 23.3
003AD0EB 2019-03-08 02:51:21 20.7 22 23
003AD0EB 2019-03-08 02:21:40 20.7 22 22.8
003AD0EB 2019-03-08 01:52:01 20.7 22 22.7
003AD0EB 2019-03-08 01:22:20 20.7 22 22.6
003AD0EB 2019-03-08 00:52:39 20.8 22 22.2
003AD0EB 2019-03-08 00:22:59 20.8 22 22.4
003AD0EB 2019-03-07 23:53:20 20.8 22 22.2
003AD0EB 2019-03-07 23:23:41 20.8 22 21.9
003AD0EB 2019-03-07 22:54:01 20.8 22 21.4
003AD0EB 2019-03-07 22:24:20 20.8 22 21.2
003AD0EB 2019-03-07 21:54:39 20.9 22 20.7
003AD0EB 2019-03-07 21:24:59 20.9 22 20.4
003AD0EB 2019-03-07 20:55:19 20.9 22 20
003AD0EB 2019-03-07 20:25:38 20.9 21 19.8
003AD0EB 2019-03-07 19:55:57 20.9 21 19.4
003AD0EB 2019-03-07 19:26:17 21 21 19.4
003AD0EB 2019-03-07 18:56:36 21 21 19
003AD0EB 2019-03-07 18:26:55 21.1 21 18.7
003AD0EB 2019-03-07 17:57:15 21.1 21 18.3
003AD0EB 2019-03-07 17:27:36 21.2 21 17.9
003AD0EB 2019-03-07 16:57:57 21.2 21 17.9
003AD0EB 2019-03-07 16:28:17 21.2 21 17.8
003AD0EB 2019-03-07 15:58:39 21.1 21 17.9
003AD0EB 2019-03-07 15:28:59 21.1 21 17.6
003AD0EB 2019-03-07 14:59:20 21.1 20 17.2
003AD0EB 2019-03-07 14:29:40 21 20 17.3
003AD0EB 2019-03-07 13:59:58 21 20 17.2
003AD0EB 2019-03-07 13:30:17 21 19 17.1
003AD0EB 2019-03-07 13:00:38 20.9 19 17
003AD0EB 2019-03-07 12:30:56 20.9 18 17.4
003AD0EB 2019-03-07 12:01:12 20.9 18 16.9
003AD0EB 2019-03-07 11:30:58 20.9 18 16.6
003AD0EB 2019-03-07 11:01:17 20.8 18 16.6
003AD0EB 2019-03-07 10:31:36 20.7 17 16.7
003AD0EB 2019-03-07 10:01:56 20.7 17 16.6
003AD0EB 2019-03-07 09:32:19 20.7 16 16.6
003AD0EB 2019-03-07 09:02:41 20.7 16 16.7
003AD0EB 2019-03-07 08:32:57 20.7 16 17.3
003AD0EB 2019-03-07 08:03:15 20.7 16 17.1
003AD0EB 2019-03-07 07:33:34 20.7 15 17.2
003AD0EB 2019-03-07 07:03:55 20.7 15 17.2
003AD0EB 2019-03-07 06:34:12 20.7 15 17.4
003AD0EB 2019-03-07 06:04:30 20.7 15 17.4
003AD0EB 2019-03-07 05:34:50 20.7 14 17.1
003AD0EB 2019-03-07 05:05:10 20.7 14 17.4
003AD0EB 2019-03-07 04:35:29 20.7 14 17.3
003AD0EB 2019-03-07 04:05:49 20.7 14 17.1
003AD0EB 2019-03-07 03:36:10 20.7 14 17
003AD0EB 2019-03-07 03:06:30 20.7 14 17.1
003AD0EB 2019-03-07 02:36:51 20.7 13 17.3
003AD0EB 2019-03-07 02:07:12 20.7 13 17.5
003AD0EB 2019-03-07 01:37:32 20.7 13 17.5
003AD0EB 2019-03-07 01:07:55 20.7 13 17.5
003AD0EB 2019-03-07 00:38:16 20.7 13 17.1
003AD0EB 2019-03-07 00:08:36 20.7 13 17.1
003AD0EB 2019-03-06 23:38:57 20.7 13 17.1
003AD0EB 2019-03-06 23:09:18 20.7 12 17.3
003AD0EB 2019-03-06 22:39:39 20.7 12 17.3
003AD0EB 2019-03-06 22:10:00 20.7 12 17.3
003AD0EB 2019-03-06 21:40:21 20.8 12 17.3
003AD0EB 2019-03-06 21:10:40 20.8 12 17.7
003AD0EB 2019-03-06 20:41:02 20.8 12 17.6
003AD0EB 2019-03-06 20:11:21 20.8 12 17.2
003AD0EB 2019-03-06 19:41:42 20.8 12 17.4
003AD0EB 2019-03-06 19:12:02 20.8 12 17.6
003AD0EB 2019-03-06 18:42:21 20.9 12 17.7
003AD0EB 2019-03-06 18:12:42 20.9 12 17.7
003AD0EB 2019-03-06 17:42:59 20.9 12 17.8
003AD0EB 2019-03-06 17:13:19 20.9 12 18
003AD0EB 2019-03-06 16:43:41 21 12 18
003AD0EB 2019-03-06 16:13:58 21 11 17.9
003AD0EB 2019-03-06 15:44:16 21 11 20.1
003AD0EB 2019-03-06 15:14:36 20.9 12 20.2
003AD0EB 2019-03-06 14:44:56 20.9 12 20.2
003AD0EB 2019-03-06 14:15:16 20.8 12 20.1
003AD0EB 2019-03-06 13:45:38 20.7 11 20.5
003AD0EB 2019-03-06 13:15:54 20.7 11 20.5
003AD0EB 2019-03-06 12:46:15 20.7 11 20.8
003AD0EB 2019-03-06 12:16:35 20.7 12 21
003AD0EB 2019-03-06 11:46:55 20.6 12 21.2
003AD0EB 2019-03-06 11:17:14 20.6 12 21.3
003AD0EB 2019-03-06 10:47:02 20.6 12 21.4
003AD0EB 2019-03-06 10:17:25 20.5 12 21.6
003AD0EB 2019-03-06 09:47:43 20.4 12 21.6
003AD0EB 2019-03-06 09:18:02 20.4 12 21.5
003AD0EB 2019-03-06 08:48:22 20.4 12 21.4
003AD0EB 2019-03-06 08:18:42 20.4 12 21.4
003AD0EB 2019-03-06 07:49:02 20.5 12 21.2
003AD0EB 2019-03-06 07:19:22 20.5 12 21.1
003AD0EB 2019-03-06 06:49:42 20.5 12 21.3
003AD0EB 2019-03-06 06:20:02 20.5 13 21.3
003AD0EB 2019-03-06 05:50:23 20.5 13 21.3
003AD0EB 2019-03-06 05:20:44 20.5 13 21.2
003AD0EB 2019-03-06 04:51:05 20.5 13 21
003AD0EB 2019-03-06 04:21:27 20.5 13 21.1
003AD0EB 2019-03-06 03:51:45 20.5 13 19.6
003AD0EB 2019-03-06 03:22:06 20.6 13 19.4
003AD0EB 2019-03-06 02:52:27 20.6 13 19.3
003AD0EB 2019-03-06 02:22:47 20.6 13 19.2
003AD0EB 2019-03-06 01:53:06 20.6 13 18.6
003AD0EB 2019-03-06 01:23:25 20.7 13 18.8
003AD0EB 2019-03-06 00:53:43 20.7 13 18.4
003AD0EB 2019-03-06 00:24:03 20.7 13 18.1
003AD0EB 2019-03-05 23:54:20 20.7 13 17.5
003AD0EB 2019-03-05 23:24:39 20.7 13 17
003AD0EB 2019-03-05 22:54:57 20.8 14 16.6
003AD0EB 2019-03-05 22:25:15 20.8 14 16.2
003AD0EB 2019-03-05 21:55:33 20.8 14 16
003AD0EB 2019-03-05 21:25:50 20.8 14 16.3
003AD0EB 2019-03-05 20:56:07 20.8 14 16.3
003AD0EB 2019-03-05 20:26:24 20.9 14 16.6
003AD0EB 2019-03-05 19:56:44 20.9 14 16.7
003AD0EB 2019-03-05 19:27:00 20.9 14 16.6
003AD0EB 2019-03-05 18:57:19 20.9 14 15.6
003AD0EB 2019-03-05 18:27:38 20.9 14 15.7
003AD0EB 2019-03-05 17:58:00 21 14 15.5
003AD0EB 2019-03-05 17:28:19 21 15 15.7
003AD0EB 2019-03-05 16:58:33 21 15 15.5
003AD0EB 2019-03-05 15:59:09 21 16 15.5
003AD0EB 2019-03-05 15:29:26 20.9 16 15.3
003AD0EB 2019-03-05 14:30:03 20.6 17 15
003AD0EB 2019-03-05 14:00:22 20.6 17 15
003AD0EB 2019-03-05 13:30:42 20.6 17 14.9
003AD0EB 2019-03-05 13:01:05 20.6 17 15
003AD0EB 2019-03-05 12:31:21 20.6 17 14.7
003AD0EB 2019-03-05 12:01:40 20.5 17 18.2
003AD0EB 2019-03-05 11:32:01 20.5 17 18.2
003AD0EB 2019-03-05 11:02:18 20.5 18 18.3
003AD0EB 2019-03-05 10:32:35 20.5 18 18.4
003AD0EB 2019-03-05 10:02:20 20.5 18 18.4
003AD0EB 2019-03-05 09:32:37 20.5 18 18.3
003AD0EB 2019-03-05 09:02:57 20.5 18 18.3
003AD0EB 2019-03-05 08:33:15 20.5 18 18
003AD0EB 2019-03-05 08:03:36 20.5 19 18
003AD0EB 2019-03-05 07:33:54 20.5 19 17.8
003AD0EB 2019-03-05 07:04:14 20.5 19 17.7
003AD0EB 2019-03-05 06:34:31 20.5 19 17.7
003AD0EB 2019-03-05 06:04:49 20.5 19 17.7
003AD0EB 2019-03-05 05:35:13 20.5 19 17.7
003AD0EB 2019-03-05 05:05:28 20.5 19 17.7
003AD0EB 2019-03-05 04:35:48 20.5 19 17.6
003AD0EB 2019-03-05 04:06:07 20.5 19 17.8
003AD0EB 2019-03-05 03:36:24 20.5 19 17.8
003AD0EB 2019-03-05 03:06:43 20.5 19 17.8
003AD0EB 2019-03-05 02:37:02 20.5 19 17.9
003AD0EB 2019-03-05 02:07:22 20.5 19 17.9
003AD0EB 2019-03-05 01:37:45 20.5 18 17.9
003AD0EB 2019-03-05 01:08:02 20.5 18 18
003AD0EB 2019-03-05 00:38:20 20.5 18 20.1
003AD0EB 2019-03-05 00:08:40 20.5 18 18.1
003AD0EB 2019-03-04 23:39:01 20.5 18 18.1
003AD0EB 2019-03-04 23:09:23 20.5 18 18
003AD0EB 2019-03-04 22:39:39 20.5 18 17.9
003AD0EB 2019-03-04 22:09:58 20.5 18 17.9
003AD0EB 2019-03-04 21:40:17 20.6 18 17.9
003AD0EB 2019-03-04 21:10:39 20.6 18 17.9
003AD0EB 2019-03-04 20:40:56 20.6 18 17.9
003AD0EB 2019-03-04 20:11:14 20.6 18 17.9
003AD0EB 2019-03-04 19:41:34 20.5 18 17.9
003AD0EB 2019-03-04 19:11:55 20.5 18 18.5
003AD0EB 2019-03-04 18:42:12 20.6 18 19
003AD0EB 2019-03-04 18:12:31 20.5 18 19.1
003AD0EB 2019-03-04 17:13:09 20.6 18 20.8
003AD0EB 2019-03-04 16:43:28 20.5 18 20.9
003AD0EB 2019-03-04 16:13:49 20.5 18 20.9
003AD0EB 2019-03-04 15:44:10 20.5 17 21.2
003AD0EB 2019-03-04 15:14:29 20.5 17 21.3
003AD0EB 2019-03-04 14:44:49 20.5 17 21.3
003AD0EB 2019-03-04 14:15:08 20.4 17 21.4
003AD0EB 2019-03-04 13:45:27 20.4 17 21.4
003AD0EB 2019-03-04 13:15:48 20.4 17 21.6
003AD0EB 2019-03-04 12:46:09 20.3 17 21.7
003AD0EB 2019-03-04 12:16:26 20.3 17 21.9
003AD0EB 2019-03-04 11:46:47 20.3 17 20.8
003AD0EB 2019-03-04 11:17:04 20.2 17 20.9
003AD0EB 2019-03-04 10:47:22 20.2 17 21
003AD0EB 2019-03-04 10:17:43 20.2 17 22.1
003AD0EB 2019-03-04 09:48:00 20.4 17 23.1
003AD0EB 2019-03-04 09:46:50 20.1 17 23.2
003AD0EB 2019-03-04 09:17:09 20.1 17 23.9
003AD0EB 2019-03-04 08:47:28 20.1 17 24
003AD0EB 2019-03-04 08:17:48 20.1 17 24
003AD0EB 2019-03-04 07:48:09 20 18 24
003AD0EB 2019-03-04 07:18:29 20 18 24
003AD0EB 2019-03-04 06:48:48 20 18 23.8
003AD0EB 2019-03-04 06:19:08 20 18 23.7
003AD0EB 2019-03-04 05:49:27 20.1 18 23.7
003AD0EB 2019-03-04 05:19:46 20.1 18 22.9
003AD0EB 2019-03-04 04:50:05 20.1 18 22.9
003AD0EB 2019-03-04 04:20:24 20.1 17 23.6
003AD0EB 2019-03-04 03:50:43 20.1 17 23.5
003AD0EB 2019-03-04 03:21:01 20.1 17 23.4
003AD0EB 2019-03-04 02:51:20 20.1 17 23.5
003AD0EB 2019-03-04 02:21:37 20.1 17 23.4
003AD0EB 2019-03-04 01:51:56 20.1 17 23.4
003AD0EB 2019-03-04 01:22:15 20.1 17 23.4
003AD0EB 2019-03-04 00:52:33 20.1 17 23.3
003AD0EB 2019-03-04 00:22:54 20.1 17 23.3
003AD0EB 2019-03-03 23:53:14 20.1 17 23.4
003AD0EB 2019-03-03 23:23:34 20.1 17 23.4
003AD0EB 2019-03-03 22:53:54 20.1 17 23.4
003AD0EB 2019-03-03 22:24:13 20.1 17 22.7
003AD0EB 2019-03-03 21:54:32 20.1 17 21.6
003AD0EB 2019-03-03 21:24:51 20.1 17 21.6
003AD0EB 2019-03-03 20:55:09 20.1 17 20.4
003AD0EB 2019-03-03 20:25:34 20.1 18 20.4
003AD0EB 2019-03-03 19:55:48 20.2 18 20.3
003AD0EB 2019-03-03 19:26:08 20.2 18 20.4
003AD0EB 2019-03-03 18:56:26 20.2 18 20.7
003AD0EB 2019-03-03 18:26:47 20.2 18 20.6
003AD0EB 2019-03-03 17:57:07 20.2 18 20.6
003AD0EB 2019-03-03 17:27:28 20.2 18 20.8
003AD0EB 2019-03-03 16:57:49 20.2 18 21.3
003AD0EB 2019-03-03 16:28:08 20.2 18 21.3
003AD0EB 2019-03-03 15:58:29 20.2 18 19.9
003AD0EB 2019-03-03 15:28:48 20.2 18 20.2
003AD0EB 2019-03-03 14:59:08 20.2 18 20.2
003AD0EB 2019-03-03 14:29:29 20.2 18 20
003AD0EB 2019-03-03 13:59:52 20.2 18 21.5
003AD0EB 2019-03-03 13:30:11 20.2 18 21.4
003AD0EB 2019-03-03 13:00:32 20.2 18 21.3
003AD0EB 2019-03-03 12:30:54 20.2 18 21.3
003AD0EB 2019-03-03 12:01:17 20.2 18 21.1
003AD0EB 2019-03-03 11:31:38 20.2 18 21
003AD0EB 2019-03-03 11:02:01 20.2 18 20.8
003AD0EB 2019-03-03 10:32:21 20.2 18 20.6
003AD0EB 2019-03-03 10:02:46 20.2 18 20.6
003AD0EB 2019-03-03 09:33:03 20.2 18 20.6
003AD0EB 2019-03-03 09:02:50 20.2 18 20.8
003AD0EB 2019-03-03 08:33:11 20.2 18 20.9
003AD0EB 2019-03-03 08:03:31 20.2 18 20.8
003AD0EB 2019-03-03 07:33:50 20.2 18 20.5
003AD0EB 2019-03-03 07:04:10 20.3 18 20.5
003AD0EB 2019-03-03 06:34:30 20.3 18 20.5
003AD0EB 2019-03-03 06:04:51 20.3 18 20.3
003AD0EB 2019-03-03 05:35:11 20.3 18 19.9
003AD0EB 2019-03-03 04:35:52 20.3 18 19.9
003AD0EB 2019-03-03 04:06:11 20.3 18 19.8
003AD0EB 2019-03-03 03:36:35 20.3 18 19.6
003AD0EB 2019-03-03 03:06:55 20.3 18 19.7
003AD0EB 2019-03-03 02:37:16 20.3 18 19.8
003AD0EB 2019-03-03 02:07:37 20.3 18 17.5
003AD0EB 2019-03-03 01:37:57 20.4 18 17.5
003AD0EB 2019-03-03 01:08:18 20.3 18 17.3
003AD0EB 2019-03-03 00:38:39 20.3 18 17.3
003AD0EB 2019-03-03 00:08:59 20.4 18 17.3
003AD0EB 2019-03-02 23:39:20 20.4 18 17.1
003AD0EB 2019-03-02 23:09:38 20.4 17 19.5
003AD0EB 2019-03-02 22:39:59 20.4 17 19.8
003AD0EB 2019-03-02 22:10:21 20.4 17 19.9
003AD0EB 2019-03-02 21:40:43 20.4 17 20.2
003AD0EB 2019-03-02 21:11:05 20.4 17 21.5
003AD0EB 2019-03-02 20:41:26 20.4 17 21.5
003AD0EB 2019-03-02 20:11:48 20.4 17 21.4
003AD0EB 2019-03-02 19:42:09 20.5 17 21.5
003AD0EB 2019-03-02 19:12:32 20.5 17 21.7
003AD0EB 2019-03-02 18:42:53 20.5 17 21.9
003AD0EB 2019-03-02 18:13:15 20.5 17 22.9
003AD0EB 2019-03-02 17:43:36 20.6 17 23
003AD0EB 2019-03-02 17:13:56 20.5 17 23.1
003AD0EB 2019-03-02 16:44:20 20.6 17 23.1
003AD0EB 2019-03-02 16:14:39 20.6 17 23.1
003AD0EB 2019-03-02 15:45:00 20.5 17 23.1
003AD0EB 2019-03-02 15:15:24 20.5 17 23.2
003AD0EB 2019-03-02 14:45:46 20.4 16 23.1
003AD0EB 2019-03-02 14:16:06 20.4 16 23.3
003AD0EB 2019-03-02 13:46:27 20.4 16 23.3
003AD0EB 2019-03-02 13:16:47 20.4 16 23.3
003AD0EB 2019-03-02 12:47:09 20.4 16 23.4
003AD0EB 2019-03-02 12:17:27 20.4 16 23.4
003AD0EB 2019-03-02 11:47:46 20.4 16 23.4
003AD0EB 2019-03-02 11:18:05 20.4 16 23.5
003AD0EB 2019-03-02 10:48:23 20.4 16 22.9
003AD0EB 2019-03-02 10:18:43 20.4 16 22.8
003AD0EB 2019-03-02 09:49:02 20.4 15 22.7
003AD0EB 2019-03-02 09:19:25 20.4 15 22.6
003AD0EB 2019-03-02 08:49:43 20.4 15 21.5
003AD0EB 2019-03-02 08:19:30 20.4 15 21.2
003AD0EB 2019-03-02 07:49:50 20.4 15 21.1
003AD0EB 2019-03-02 07:20:11 20.4 15 20.9
003AD0EB 2019-03-02 06:50:30 20.4 15 20.6
003AD0EB 2019-03-02 06:20:48 20.5 15 18.8
003AD0EB 2019-03-02 05:51:06 20.5 15 18.5
003AD0EB 2019-03-02 05:21:26 20.5 15 18.1
003AD0EB 2019-03-02 04:51:44 20.5 15 17.9
003AD0EB 2019-03-02 04:22:03 20.5 15 18.9
003AD0EB 2019-03-02 03:52:21 20.5 14 19
003AD0EB 2019-03-02 03:22:39 20.5 14 18.9
003AD0EB 2019-03-02 02:52:57 20.6 14 18.9
003AD0EB 2019-03-02 02:23:16 20.6 14 18.7
003AD0EB 2019-03-02 01:53:35 20.6 14 19.2
003AD0EB 2019-03-02 01:23:54 20.7 14 19.2
003AD0EB 2019-03-02 00:54:13 20.7 14 19
003AD0EB 2019-03-02 00:24:34 20.7 14 19.2
003AD0EB 2019-03-01 23:54:52 20.8 14 19.4
003AD0EB 2019-03-01 23:25:10 20.8 14 19.2
003AD0EB 2019-03-01 22:55:30 20.9 14 19
003AD0EB 2019-03-01 22:25:49 20.9 14 19.1
003AD0EB 2019-03-01 21:56:11 21 14 19.2
003AD0EB 2019-03-01 21:26:30 21 14 19.4
003AD0EB 2019-03-01 20:56:50 21 14 19.5
003AD0EB 2019-03-01 20:27:09 21 14 19.6
003AD0EB 2019-03-01 19:57:29 21 13 19.7
003AD0EB 2019-03-01 19:27:47 21 13 19.7
003AD0EB 2019-03-01 18:58:08 21 13 19.9
003AD0EB 2019-03-01 18:28:25 21.1 13 19.9
003AD0EB 2019-03-01 17:29:05 21.2 14 20.2
003AD0EB 2019-03-01 16:59:25 21.3 14 20.4
003AD0EB 2019-03-01 16:29:48 21.3 15 20.7
003AD0EB 2019-03-01 16:00:04 21.2 15 20.7
003AD0EB 2019-03-01 15:30:23 21.1 15 21.5
003AD0EB 2019-03-01 15:00:43 21 15 21.7
003AD0EB 2019-03-01 14:31:04 20.9 16 22
003AD0EB 2019-03-01 14:01:23 20.9 16 23
003AD0EB 2019-03-01 13:31:42 20.9 16 23
003AD0EB 2019-03-01 13:02:01 20.9 16 22.9
003AD0EB 2019-03-01 12:32:20 20.9 16 23
003AD0EB 2019-03-01 12:02:40 20.9 17 23.1
003AD0EB 2019-03-01 11:32:59 20.9 17 23.2
003AD0EB 2019-03-01 11:03:18 20.8 17 23.2
003AD0EB 2019-03-01 10:33:37 20.8 17 23.3
003AD0EB 2019-03-01 10:03:55 20.7 17 23.4
003AD0EB 2019-03-01 09:34:13 20.6 17 23.4
003AD0EB 2019-03-01 09:04:33 20.5 18 23.5
003AD0EB 2019-03-01 08:34:52 20.5 18 23.6
003AD0EB 2019-03-01 08:05:14 20.6 18 23.6
003AD0EB 2019-03-01 07:34:57 20.5 19 23.7
003AD0EB 2019-03-01 07:05:18 20.6 19 23.9
003AD0EB 2019-03-01 06:35:37 20.6 19 24
003AD0EB 2019-03-01 06:05:56 20.6 19 24.1
003AD0EB 2019-03-01 05:36:15 20.6 19 24.1
003AD0EB 2019-03-01 05:06:34 20.6 20 24.2
003AD0EB 2019-03-01 04:36:54 20.6 20 24.1
003AD0EB 2019-03-01 04:07:13 20.6 20 24.1
003AD0EB 2019-03-01 03:37:33 20.7 20 23.5
003AD0EB 2019-03-01 03:07:50 20.7 20 23.4
003AD0EB 2019-03-01 02:38:09 20.7 21 23.1
003AD0EB 2019-03-01 02:08:29 20.7 21 22.2
003AD0EB 2019-03-01 01:38:49 20.7 21 22
003AD0EB 2019-03-01 01:09:08 20.7 21 21.9
003AD0EB 2019-03-01 00:39:29 20.7 22 21.8
003AD0EB 2019-03-01 00:09:49 20.8 22 21.5
003AD0EB 2019-02-28 23:40:09 20.8 22 21.2
003AD0EB 2019-02-28 23:10:28 20.8 22 21
003AD0EB 2019-02-28 22:40:48 20.8 23 20.9
003AD0EB 2019-02-28 22:11:08 20.9 23 20.7
003AD0EB 2019-02-28 21:41:29 20.9 23 20.8
003AD0EB 2019-02-28 21:11:49 20.9 23 20.7
003AD0EB 2019-02-28 20:42:08 20.9 23 20.5
003AD0EB 2019-02-28 20:12:27 21 23 20.6
003AD0EB 2019-02-28 19:42:47 21 24 21.1
003AD0EB 2019-02-28 19:13:06 21.1 24 20.8
003AD0EB 2019-02-28 18:43:26 21.1 24 20.9
003AD0EB 2019-02-28 18:13:46 21.2 24 20.7
003AD0EB 2019-02-28 17:44:05 21.3 25 20.4
003AD0EB 2019-02-28 17:14:27 21.4 25 20.5
003AD0EB 2019-02-28 16:44:49 21.4 26 20.5
003AD0EB 2019-02-28 16:15:07 21.4 25 20.4
003AD0EB 2019-02-28 15:45:26 21.3 25 20.7
003AD0EB 2019-02-28 15:15:44 21.3 24 20.7
003AD0EB 2019-02-28 14:46:03 21.3 24 20.8
003AD0EB 2019-02-28 14:16:22 21.3 24 21
003AD0EB 2019-02-28 13:46:41 21.3 24 21.3
003AD0EB 2019-02-28 13:17:00 21.2 24 21.6
003AD0EB 2019-02-28 12:47:20 21.2 24 21.6
003AD0EB 2019-02-28 12:17:42 21.1 24 21.6
003AD0EB 2019-02-28 11:47:59 21.1 24 22
003AD0EB 2019-02-28 11:18:19 21 24 22.2
003AD0EB 2019-02-28 10:48:39 21 24 22.4
003AD0EB 2019-02-28 10:18:57 20.8 23 22.4
003AD0EB 2019-02-28 09:49:17 20.8 23 22.4
003AD0EB 2019-02-28 09:19:35 20.8 22 22.5
003AD0EB 2019-02-28 08:49:52 20.8 22 22.4
003AD0EB 2019-02-28 08:20:11 20.7 22 22.5
003AD0EB 2019-02-28 07:50:30 20.7 22 22.5
003AD0EB 2019-02-28 07:20:48 20.8 22 22.4
003AD0EB 2019-02-28 06:50:34 20.8 22 22.3
003AD0EB 2019-02-28 06:20:54 20.8 22 22.1
003AD0EB 2019-02-28 05:51:13 20.8 22 22.2
003AD0EB 2019-02-28 05:21:32 20.8 22 22.1
003AD0EB 2019-02-28 04:51:52 20.8 22 21.9
003AD0EB 2019-02-28 04:22:12 20.8 22 22
003AD0EB 2019-02-28 03:52:29 20.8 22 21.7
003AD0EB 2019-02-28 03:22:50 20.8 22 21.7
003AD0EB 2019-02-28 02:53:13 20.8 22 21.7
003AD0EB 2019-02-28 02:23:31 20.8 22 21.6
003AD0EB 2019-02-28 01:53:49 20.9 22 21.5
003AD0EB 2019-02-28 01:24:09 20.8 22 21.4
003AD0EB 2019-02-28 00:54:30 20.9 22 21.4
003AD0EB 2019-02-28 00:24:49 20.9 22 21.5
003AD0EB 2019-02-27 23:55:08 20.9 22 21.1
003AD0EB 2019-02-27 23:25:29 21 23 20.8
003AD0EB 2019-02-27 22:55:48 21 23 20.7
003AD0EB 2019-02-27 22:26:08 21 23 21
003AD0EB 2019-02-27 21:56:27 21.1 23 21
003AD0EB 2019-02-27 21:26:46 21.1 23 20.7
003AD0EB 2019-02-27 20:57:05 21.2 23 20.6
003AD0EB 2019-02-27 20:27:25 21.2 23 20.3
003AD0EB 2019-02-27 19:57:44 21.2 23 20.1
003AD0EB 2019-02-27 19:28:02 21.3 23 20.1
003AD0EB 2019-02-27 18:58:21 21.4 24 19.9
003AD0EB 2019-02-27 18:28:39 21.5 24 19.7
003AD0EB 2019-02-27 17:58:57 21.6 24 19.9
003AD0EB 2019-02-27 17:29:16 21.7 25 20.1
003AD0EB 2019-02-27 16:59:34 21.7 25 20
003AD0EB 2019-02-27 16:29:52 21.7 26 19.9
003AD0EB 2019-02-27 16:00:10 21.6 25 19.8
003AD0EB 2019-02-27 15:30:30 21.5 26 21.3
003AD0EB 2019-02-27 15:00:49 21.5 26 21.4
003AD0EB 2019-02-27 14:31:10 21.3 26 21.4
003AD0EB 2019-02-27 14:01:25 21.3 25 21.3
003AD0EB 2019-02-27 13:31:44 21.2 25 21.2
003AD0EB 2019-02-27 13:02:03 21.2 25 21
003AD0EB 2019-02-27 12:32:24 21.2 25 21.1
003AD0EB 2019-02-27 12:02:41 21.2 25 21
003AD0EB 2019-02-27 11:33:01 21.1 24 21.1
003AD0EB 2019-02-27 11:03:18 21.1 25 21.2
003AD0EB 2019-02-27 10:33:40 21.1 25 21.1
003AD0EB 2019-02-27 10:03:54 21 24 20.8
003AD0EB 2019-02-27 09:34:14 20.9 24 20.6
003AD0EB 2019-02-27 09:04:30 20.9 24 20.5
003AD0EB 2019-02-27 08:34:48 20.9 23 20.6
003AD0EB 2019-02-27 08:05:08 20.9 23 20.8
003AD0EB 2019-02-27 07:35:27 20.9 23 21
003AD0EB 2019-02-27 07:05:47 20.9 23 21.1
003AD0EB 2019-02-27 06:36:06 20.9 23 21.1
003AD0EB 2019-02-27 06:05:42 20.9 23 21.3
003AD0EB 2019-02-27 05:36:00 20.9 23 21.1
003AD0EB 2019-02-27 05:06:17 21 23 21.1
003AD0EB 2019-02-27 04:36:36 21 23 21.1
003AD0EB 2019-02-27 04:06:53 21 23 21.2
003AD0EB 2019-02-27 03:37:12 21 23 19.6
003AD0EB 2019-02-27 03:07:30 21 23 19.1
003AD0EB 2019-02-27 02:37:50 21.1 23 19
003AD0EB 2019-02-27 02:08:09 21.1 23 19.5
003AD0EB 2019-02-27 01:38:27 21.1 23 19.4
003AD0EB 2019-02-27 01:08:46 21.2 23 19.8
003AD0EB 2019-02-27 00:39:07 21.2 23 20
003AD0EB 2019-02-27 00:09:24 21.2 23 20.4
003AD0EB 2019-02-26 23:39:42 21.2 23 20.2
003AD0EB 2019-02-26 23:10:02 21.3 23 20.1
003AD0EB 2019-02-26 22:40:22 21.4 24 20.1
003AD0EB 2019-02-26 22:10:42 21.4 24 20.1
003AD0EB 2019-02-26 21:41:02 21.5 24 21.5
003AD0EB 2019-02-26 21:11:21 21.5 24 22.5
003AD0EB 2019-02-26 20:41:41 21.5 24 23.2
003AD0EB 2019-02-26 20:12:00 21.6 24 23.9
003AD0EB 2019-02-26 19:42:18 21.6 24 24.4
003AD0EB 2019-02-26 19:12:37 21.7 24 25
003AD0EB 2019-02-26 18:42:56 21.8 24 25.5
003AD0EB 2019-02-26 18:13:16 21.8 24 25.8
003AD0EB 2019-02-26 17:43:35 21.9 24 25.8
003AD0EB 2019-02-26 17:13:53 21.9 24 26.2
003AD0EB 2019-02-26 16:44:11 21.9 24 26.6
003AD0EB 2019-02-26 16:14:27 21.8 24 26.9
003AD0EB 2019-02-26 15:44:46 21.7 25 27.3
003AD0EB 2019-02-26 15:15:07 21.6 25 27.6
003AD0EB 2019-02-26 14:45:27 21.5 24 27.8
003AD0EB 2019-02-26 14:15:46 21.5 24 28
003AD0EB 2019-02-26 13:46:04 21.5 24 28.1
003AD0EB 2019-02-26 13:16:24 21.5 24 28.3
003AD0EB 2019-02-26 12:46:45 21.4 24 28.5
003AD0EB 2019-02-26 12:17:04 21.4 24 28.6
003AD0EB 2019-02-26 11:47:23 21.3 24 28.9
003AD0EB 2019-02-26 11:17:39 21.2 24 29.1
003AD0EB 2019-02-26 10:47:58 21.2 24 29.3
003AD0EB 2019-02-26 10:18:17 21.1 24 29.5
003AD0EB 2019-02-26 09:48:37 21 23 29.7
003AD0EB 2019-02-26 09:18:57 20.9 23 29.7
003AD0EB 2019-02-26 08:49:17 20.9 23 29.7
003AD0EB 2019-02-26 08:19:38 20.9 23 29.7
003AD0EB 2019-02-26 07:49:58 20.9 22 29.7
003AD0EB 2019-02-26 07:20:17 20.9 22 29.7
003AD0EB 2019-02-26 06:50:37 20.9 22 29.7
003AD0EB 2019-02-26 06:20:56 20.9 22 29.7
003AD0EB 2019-02-26 05:51:14 20.9 22 29.7
003AD0EB 2019-02-26 05:21:03 20.9 22 29.9
003AD0EB 2019-02-26 04:51:23 20.9 22 29.9
003AD0EB 2019-02-26 04:21:43 20.9 22 29.7
003AD0EB 2019-02-26 03:52:02 20.9 22 29.7
003AD0EB 2019-02-26 03:22:21 21 22 29.5
003AD0EB 2019-02-26 02:52:42 21 22 29.3
003AD0EB 2019-02-26 02:23:02 21 22 29.1
003AD0EB 2019-02-26 01:53:22 21 21 29.1
003AD0EB 2019-02-26 01:23:41 21 21 28.9
003AD0EB 2019-02-26 00:54:01 21.1 21 28.6
003AD0EB 2019-02-26 00:24:21 21.1 21 28.4
003AD0EB 2019-02-25 23:54:39 21.1 21 28.2
003AD0EB 2019-02-25 23:24:58 21.2 21 27.9
003AD0EB 2019-02-25 22:55:18 21.2 21 27.6
003AD0EB 2019-02-25 22:25:37 21.2 21 27.3
003AD0EB 2019-02-25 21:55:58 21.3 21 27
003AD0EB 2019-02-25 21:26:16 21.4 21 26.7
003AD0EB 2019-02-25 20:56:35 21.4 21 26.3
003AD0EB 2019-02-25 20:26:54 21.4 21 25.9
003AD0EB 2019-02-25 19:57:14 21.5 21 25.4
003AD0EB 2019-02-25 19:27:34 21.5 21 24.9
003AD0EB 2019-02-25 18:57:54 21.6 21 24.4
003AD0EB 2019-02-25 18:28:13 21.6 21 23.8
003AD0EB 2019-02-25 17:58:33 21.6 22 23
003AD0EB 2019-02-25 17:28:55 21.6 22 22.1
003AD0EB 2019-02-25 16:59:13 21.6 22 21
003AD0EB 2019-02-25 16:29:31 21.6 22 19.4
003AD0EB 2019-02-25 15:59:50 21.6 22 19.5
003AD0EB 2019-02-25 15:30:08 21.6 22 17.3
003AD0EB 2019-02-25 15:00:28 21.5 23 17.3
003AD0EB 2019-02-25 14:30:50 21.4 22 17.9
003AD0EB 2019-02-25 14:01:06 21.3 22 18.3
003AD0EB 2019-02-25 13:31:23 21.2 22 18.5
003AD0EB 2019-02-25 13:01:42 21.2 22 20.3
003AD0EB 2019-02-25 12:32:00 21.1 22 20.4
003AD0EB 2019-02-25 12:02:19 21 22 20.1
003AD0EB 2019-02-25 11:32:39 21 22 20.3
003AD0EB 2019-02-25 11:02:57 20.9 22 20.4
003AD0EB 2019-02-25 10:33:16 20.8 22 20.4
003AD0EB 2019-02-25 10:03:34 20.7 22 20.4
003AD0EB 2019-02-25 09:33:56 20.7 22 20.3
003AD0EB 2019-02-25 09:04:13 20.6 22 20.5
003AD0EB 2019-02-25 08:34:31 20.6 22 20.5
003AD0EB 2019-02-25 08:04:51 20.6 22 21.8
003AD0EB 2019-02-25 07:35:13 20.6 22 21.8
003AD0EB 2019-02-25 07:05:33 20.6 22 21.8
003AD0EB 2019-02-25 06:35:50 20.6 22 21.7
003AD0EB 2019-02-25 06:06:09 20.7 22 21.5
003AD0EB 2019-02-25 05:36:29 20.6 22 21.6
003AD0EB 2019-02-25 05:06:48 20.6 22 21.7
003AD0EB 2019-02-25 04:36:35 20.6 22 21.8
003AD0EB 2019-02-25 04:06:54 20.7 22 21.7
003AD0EB 2019-02-25 03:37:14 20.7 22 21.6
003AD0EB 2019-02-25 03:07:34 20.7 22 21.7
003AD0EB 2019-02-25 02:37:54 20.7 22 21.5
003AD0EB 2019-02-25 02:08:16 20.7 22 21.3
003AD0EB 2019-02-25 01:38:36 20.6 22 21.2
003AD0EB 2019-02-25 01:08:54 20.7 23 19.6
003AD0EB 2019-02-25 00:39:14 20.7 23 19.4
003AD0EB 2019-02-25 00:09:34 20.7 23 19.7
003AD0EB 2019-02-24 23:39:56 20.7 23 19.5
003AD0EB 2019-02-24 23:10:13 20.7 23 19.4
003AD0EB 2019-02-24 22:40:34 20.7 23 19.3
003AD0EB 2019-02-24 22:10:52 20.7 23 19.2
003AD0EB 2019-02-24 21:41:11 20.8 23 19.2
003AD0EB 2019-02-24 21:11:31 20.8 23 18.8
003AD0EB 2019-02-24 20:41:52 20.8 23 18.8
003AD0EB 2019-02-24 20:12:14 20.8 23 15.6
003AD0EB 2019-02-24 19:42:33 20.8 23 15.6
003AD0EB 2019-02-24 19:12:51 20.8 23 15.6
003AD0EB 2019-02-24 18:43:13 20.8 23 15.6
003AD0EB 2019-02-24 18:13:31 20.8 23 16
003AD0EB 2019-02-24 17:43:45 20.8 22 16.2
003AD0EB 2019-02-24 17:14:02 20.8 22 15.4
003AD0EB 2019-02-24 16:44:21 20.8 22 15.2
003AD0EB 2019-02-24 16:14:42 20.8 22 14.7
003AD0EB 2019-02-24 15:45:02 20.8 22 14.7
003AD0EB 2019-02-24 15:15:19 20.8 22 15
003AD0EB 2019-02-24 14:45:40 20.8 22 14.5
003AD0EB 2019-02-24 14:15:57 20.8 22 14.5
003AD0EB 2019-02-24 13:46:18 20.8 22 14.5
003AD0EB 2019-02-24 13:16:37 20.8 22 14.8
003AD0EB 2019-02-24 12:46:56 20.8 21 14.8
003AD0EB 2019-02-24 12:17:13 20.8 21 14.7
003AD0EB 2019-02-24 11:47:32 20.8 21 14.7
003AD0EB 2019-02-24 11:17:51 20.8 21 14.6
003AD0EB 2019-02-24 10:48:11 20.8 21 14.9
003AD0EB 2019-02-24 10:18:31 20.8 21 14.8
003AD0EB 2019-02-24 09:48:49 20.8 21 15.1
003AD0EB 2019-02-24 09:19:08 20.8 21 15
003AD0EB 2019-02-24 08:49:27 20.8 21 15
003AD0EB 2019-02-24 08:19:46 20.8 21 15.6
003AD0EB 2019-02-24 07:50:04 20.8 21 15.7
003AD0EB 2019-02-24 07:20:24 20.8 21 16
003AD0EB 2019-02-24 06:50:44 20.8 21 16.1
003AD0EB 2019-02-24 06:21:04 20.9 21 15.6
003AD0EB 2019-02-24 05:51:26 20.9 21 15.1
003AD0EB 2019-02-24 05:21:44 20.9 20 15.1
003AD0EB 2019-02-24 04:52:03 20.9 20 15.5
003AD0EB 2019-02-24 04:22:25 21.1 20 15.5
003AD0EB 2019-02-24 04:21:15 20.9 20 15.6
003AD0EB 2019-02-24 03:51:39 20.9 20 15.3
003AD0EB 2019-02-24 03:21:55 20.9 20 15.3
003AD0EB 2019-02-24 02:52:14 20.9 20 15.9
003AD0EB 2019-02-24 02:22:34 20.9 20 15.9
003AD0EB 2019-02-24 01:52:54 20.9 20 16.3
003AD0EB 2019-02-24 01:23:11 21 20 16.9
003AD0EB 2019-02-24 00:53:32 21 20 16.5
003AD0EB 2019-02-24 00:23:51 21 20 16.8
003AD0EB 2019-02-23 23:54:10 21 19 16.9
003AD0EB 2019-02-23 23:24:30 21 19 17.2
003AD0EB 2019-02-23 22:54:50 21 19 17.4
003AD0EB 2019-02-23 22:25:11 21.1 19 17.4
003AD0EB 2019-02-23 21:55:32 21.1 19 17.8
003AD0EB 2019-02-23 21:25:50 21.1 19 17.8
003AD0EB 2019-02-23 20:56:09 21.2 18 17.8
003AD0EB 2019-02-23 20:26:29 21.2 18 17.6
003AD0EB 2019-02-23 19:56:50 21.2 18 18
003AD0EB 2019-02-23 19:27:07 21.2 18 18.1
003AD0EB 2019-02-23 18:57:26 21.2 18 18.4
003AD0EB 2019-02-23 18:27:46 21.2 17 18.6
003AD0EB 2019-02-23 17:58:05 21.2 17 18.7
003AD0EB 2019-02-23 17:28:28 21.2 17 18.7
003AD0EB 2019-02-23 16:58:44 21.2 16 18.7
003AD0EB 2019-02-23 16:29:05 21.2 16 18.8
003AD0EB 2019-02-23 15:59:26 21.1 16 18.8
003AD0EB 2019-02-23 15:29:45 21.1 16 18.7
003AD0EB 2019-02-23 15:00:05 20.9 16 18.7
003AD0EB 2019-02-23 14:30:23 20.9 16 18.4
003AD0EB 2019-02-23 14:00:42 20.9 15 18.2
003AD0EB 2019-02-23 13:31:01 20.9 15 18.5
003AD0EB 2019-02-23 13:01:22 20.9 15 18.5
003AD0EB 2019-02-23 12:31:41 20.9 15 18.5
003AD0EB 2019-02-23 12:02:01 20.8 15 18.3
003AD0EB 2019-02-23 11:32:15 20.9 15 18.4
003AD0EB 2019-02-23 11:02:33 20.9 15 18.2
003AD0EB 2019-02-23 10:32:51 20.9 15 18.4
003AD0EB 2019-02-23 10:03:10 20.9 14 18.2
003AD0EB 2019-02-23 09:33:30 20.8 14 17.9
003AD0EB 2019-02-23 09:03:53 20.9 14 18
003AD0EB 2019-02-23 08:34:14 20.8 14 18
003AD0EB 2019-02-23 08:04:35 20.8 14 17.7
003AD0EB 2019-02-23 07:34:52 20.8 14 17.7
003AD0EB 2019-02-23 07:05:12 20.8 13 17.6
003AD0EB 2019-02-23 06:35:32 20.9 13 17.2
003AD0EB 2019-02-23 06:05:51 20.8 13 17.1
003AD0EB 2019-02-23 05:36:10 20.8 13 17
003AD0EB 2019-02-23 05:06:28 20.8 13 16.9
003AD0EB 2019-02-23 04:36:47 20.8 13 17.1
003AD0EB 2019-02-23 04:07:04 20.9 13 17.3
003AD0EB 2019-02-23 03:36:50 20.8 12 17.3
003AD0EB 2019-02-23 03:07:08 20.8 12 17.2
003AD0EB 2019-02-23 02:37:26 20.9 12 17.4
003AD0EB 2019-02-23 02:07:43 20.9 12 17.5
003AD0EB 2019-02-23 01:38:00 20.9 12 17.3
003AD0EB 2019-02-23 01:08:19 20.9 12 16.8
003AD0EB 2019-02-23 00:38:37 20.9 12 17
003AD0EB 2019-02-23 00:08:55 20.9 12 17.1
003AD0EB 2019-02-22 23:39:14 20.9 12 18.1
003AD0EB 2019-02-22 23:09:36 21 12 18
003AD0EB 2019-02-22 22:39:54 21 12 18.2
003AD0EB 2019-02-22 22:10:19 21 12 18
003AD0EB 2019-02-22 21:40:36 21 12 18
003AD0EB 2019-02-22 21:10:54 21.1 11 18.1
003AD0EB 2019-02-22 20:41:12 21.1 12 18.1
003AD0EB 2019-02-22 20:11:31 21.1 12 18.2
003AD0EB 2019-02-22 19:41:50 21.2 12 18.2
003AD0EB 2019-02-22 19:12:09 21.2 12 18.1
003AD0EB 2019-02-22 18:42:28 21.2 12 18.2
003AD0EB 2019-02-22 18:12:46 21.2 12 18.4
003AD0EB 2019-02-22 17:43:05 21.3 12 18.5
003AD0EB 2019-02-22 17:13:25 21.3 12 18.7
003AD0EB 2019-02-22 16:43:41 21.2 12 18.9
003AD0EB 2019-02-22 16:13:59 21.2 12 18.8
003AD0EB 2019-02-22 15:44:17 21.1 12 18.6
003AD0EB 2019-02-22 15:14:35 21 12 18.5
003AD0EB 2019-02-22 14:44:55 20.9 12 18.9
003AD0EB 2019-02-22 14:15:10 20.9 13 18.8
003AD0EB 2019-02-22 13:45:30 20.8 12 18.8
003AD0EB 2019-02-22 13:15:50 20.8 13 18.8
003AD0EB 2019-02-22 12:46:05 20.8 13 19
003AD0EB 2019-02-22 12:16:24 20.7 13 19.2
003AD0EB 2019-02-22 11:46:47 20.7 13 19
003AD0EB 2019-02-22 11:17:02 20.6 13 18.6
003AD0EB 2019-02-22 10:47:22 20.6 13 18.5
003AD0EB 2019-02-22 10:17:44 20.5 13 18.6
003AD0EB 2019-02-22 09:48:01 20.5 13 18.9
003AD0EB 2019-02-22 09:18:18 20.4 13 19.2
003AD0EB 2019-02-22 08:48:38 20.5 13 19.1
003AD0EB 2019-02-22 08:18:55 20.5 13 19.2
003AD0EB 2019-02-22 07:49:14 20.5 13 19.2
003AD0EB 2019-02-22 07:19:32 20.5 13 19.2
003AD0EB 2019-02-22 06:49:52 20.5 13 19.4
003AD0EB 2019-02-22 06:20:10 20.5 13 19.3
003AD0EB 2019-02-22 05:50:32 20.5 13 19.3
003AD0EB 2019-02-22 05:20:47 20.6 13 19.1
003AD0EB 2019-02-22 04:51:05 20.6 13 18.9
003AD0EB 2019-02-22 04:21:25 20.6 13 19.1
003AD0EB 2019-02-22 03:51:44 20.6 13 19.1
003AD0EB 2019-02-22 03:22:03 20.8 13 19
003AD0EB 2019-02-22 03:20:53 20.6 13 19.1
003AD0EB 2019-02-22 03:10:55 20.6 13 18.7
003AD0EB 2019-02-22 03:00:55 20.6 13 18.8
003AD0EB 2019-02-22 02:50:54 20.6 13 18.8
003AD0EB 2019-02-22 02:40:56 20.6 13 18.8
003AD0EB 2019-02-22 02:30:54 20.7 13 18.6
003AD0EB 2019-02-22 02:20:53 20.6 13 18.4
003AD0EB 2019-02-22 02:10:54 20.7 13 18.6
003AD0EB 2019-02-22 02:00:54 20.7 13 18.4
003AD0EB 2019-02-22 01:50:54 20.7 13 18.6
003AD0EB 2019-02-22 01:40:56 20.7 13 18.2
003AD0EB 2019-02-22 01:30:53 20.7 13 17.5
003AD0EB 2019-02-22 01:20:53 20.7 13 17.6
003AD0EB 2019-02-22 01:10:56 20.7 13 17.7
003AD0EB 2019-02-22 01:00:56 20.7 13 17.8
003AD0EB 2019-02-22 00:50:54 20.7 13 17.9
003AD0EB 2019-02-22 00:40:54 20.7 13 18
003AD0EB 2019-02-22 00:30:54 20.7 13 18.2
003AD0EB 2019-02-22 00:20:53 20.7 13 18
003AD0EB 2019-02-22 00:10:55 20.7 13 18
003AD0EB 2019-02-22 00:00:56 20.7 13 18
003AD0EB 2019-02-21 23:50:54 20.7 13 17.6
003AD0EB 2019-02-21 23:40:55 20.7 13 17.6
003AD0EB 2019-02-21 23:30:56 20.7 13 17.7
003AD0EB 2019-02-21 23:20:56 20.8 13 18
003AD0EB 2019-02-21 23:10:57 20.8 13 17.9
003AD0EB 2019-02-21 23:00:57 20.8 13 18
003AD0EB 2019-02-21 22:50:58 20.8 13 18
003AD0EB 2019-02-21 22:41:00 20.8 13 18.2
003AD0EB 2019-02-21 22:31:00 20.8 13 18.7
003AD0EB 2019-02-21 22:21:00 20.8 13 18.8
003AD0EB 2019-02-21 22:11:00 20.8 13 18.7
003AD0EB 2019-02-21 22:01:01 20.8 13 18.6
003AD0EB 2019-02-21 21:51:02 20.8 13 18.3
003AD0EB 2019-02-21 21:41:02 20.9 13 20.3
003AD0EB 2019-02-21 21:31:03 20.9 13 21.6
003AD0EB 2019-02-21 21:21:03 20.9 13 22.6
003AD0EB 2019-02-21 21:11:04 20.9 13 23.5
003AD0EB 2019-02-21 21:01:04 20.9 13 24.1
003AD0EB 2019-02-21 20:51:06 20.9 13 24.7
003AD0EB 2019-02-21 20:41:05 21 13 24.6
003AD0EB 2019-02-21 20:31:07 21 13 24.6
003AD0EB 2019-02-21 20:21:05 21 13 24.5
003AD0EB 2019-02-21 20:11:05 21 13 24.5
003AD0EB 2019-02-21 20:01:07 21 13 24.5
003AD0EB 2019-02-21 19:51:08 21 13 24.5
003AD0EB 2019-02-21 19:41:09 21 13 24.5
003AD0EB 2019-02-21 19:31:08 21.1 13 24.5
003AD0EB 2019-02-21 19:21:09 21.1 13 24.5
003AD0EB 2019-02-21 19:11:09 21.1 14 24.4
003AD0EB 2019-02-21 19:00:36 21.1 14 24.4
003AD0EB 2019-02-21 18:30:55 21.2 14 24.3
003AD0EB 2019-02-21 18:01:14 21.2 14 24.3
003AD0EB 2019-02-21 17:31:34 21.2 14 24.1
003AD0EB 2019-02-21 17:01:50 21.1 14 24.1
003AD0EB 2019-02-21 16:32:08 21 14 24
003AD0EB 2019-02-21 15:32:46 20.8 14 24.1
003AD0EB 2019-02-21 15:03:07 20.7 14 24.1
003AD0EB 2019-02-21 14:03:43 20.7 15 23.3
003AD0EB 2019-02-21 13:34:00 20.7 15 22.5
003AD0EB 2019-02-21 13:04:18 20.7 15 21.4
003AD0EB 2019-02-21 12:04:55 20.7 16 19.9
003AD0EB 2019-02-21 11:35:15 20.7 16 17.7
003AD0EB 2019-02-21 11:05:32 20.6 16 13
003AD0EB 2019-02-21 10:06:08 20.7 16 13.6
003AD0EB 2019-02-21 09:36:28 20.6 17 13.5
003AD0EB 2019-02-21 09:06:46 20.6 17 14.5
003AD0EB 2019-02-21 08:37:05 20.6 17 14.4
003AD0EB 2019-02-21 07:37:43 20.6 18 14.3
003AD0EB 2019-02-21 07:08:01 20.7 18 14.7
003AD0EB 2019-02-21 06:38:17 20.7 18 14.5
003AD0EB 2019-02-21 06:08:33 20.7 18 15.3
003AD0EB 2019-02-21 05:38:57 20.7 18 15.2
003AD0EB 2019-02-21 05:09:12 20.7 18 15.2
003AD0EB 2019-02-21 04:39:32 20.7 19 15.2
003AD0EB 2019-02-21 04:09:51 20.7 19 15.1
003AD0EB 2019-02-21 03:40:12 20.7 19 15
003AD0EB 2019-02-21 03:10:28 20.7 19 15.1
003AD0EB 2019-02-21 02:40:48 20.7 19 15
003AD0EB 2019-02-21 02:11:07 20.7 19 18.5
003AD0EB 2019-02-21 01:41:27 20.7 19 18.5
003AD0EB 2019-02-21 01:11:40 20.7 19 20.4
003AD0EB 2019-02-21 00:12:17 20.7 20 20.4
003AD0EB 2019-02-20 23:42:32 20.7 20 21.8
003AD0EB 2019-02-20 22:43:07 20.8 20 21.8
003AD0EB 2019-02-20 22:13:26 20.8 20 21.8
003AD0EB 2019-02-20 21:43:44 20.8 20 21.8
003AD0EB 2019-02-20 21:14:03 20.8 20 21.8
003AD0EB 2019-02-20 20:44:21 20.8 20 21.8
003AD0EB 2019-02-20 20:14:39 20.8 20 21.7
003AD0EB 2019-02-20 19:45:00 20.8 20 21.7
003AD0EB 2019-02-20 19:15:17 20.8 20 21.6
003AD0EB 2019-02-20 18:45:35 21.1 20 21.6
003AD0EB 2019-02-20 18:44:26 20.8 20 21.8
003AD0EB 2019-02-20 18:14:44 20.9 20 21.8
003AD0EB 2019-02-20 17:45:04 20.9 21 21.8
003AD0EB 2019-02-20 17:15:25 20.9 21 21.9
003AD0EB 2019-02-20 16:45:43 20.9 22 21.8
003AD0EB 2019-02-20 16:16:03 20.9 22 21.8
003AD0EB 2019-02-20 15:46:20 20.9 22 21.9
003AD0EB 2019-02-20 15:16:40 20.9 22 21.9
003AD0EB 2019-02-20 14:17:14 20.9 23 22